Showing default

AMOS 5, 37950

Orbit data source: Space-Track

AMOS 5, 37950 is a payload satellite owned by IAI Spacecom (IL) in GEO that was launched on Sun, 11 Dec 2011 UTC via a PROTON-M/BRIZ-M launch vehicle from the Tyuratam Missile And Space Complex (TTMTR). Payload-class satellites include a variety of spacecraft equipped with specific instruments for various scientific and technological missions. These include communications satellites like Starlink; space stations such as the ISS; scientific satellites like the Hubble; Earth observation satellites from companies like Planet Labs, Umbra, and HawkEye 360; GPS; miniature CubeSats for education and research; and military/defense satellites.

Not visible in the next 10 days
Identifier
37950, 2011-074A
Orbit
GEO
Country
Flag of UnknownUnknown / ISRA
Related business
Manufacturer
Resehetnev ISS
Mission
Non-operational Civil Communications
Bus & Motor
EKSPRESS-1000H, AOCS
Mass
~1,927 kg wet, ~1,200 kg dry
Launch date (UTC)
2011-12-11 (14 years ago)
Launch vehicle
PROTON-M/BRIZ-M
Launch site
Tyuratam Missile And Space Complex (TTMTR)
Object type
Payload
Rocket body
Debris
Shape & HBR
Box + 2 Pan, 5.0 m
Radar Cross Section
14.304 m², Large (>1 m²)

Expand to show TLE details & history
Last TLE update: 5 hours ago

TLE from 5 hours ago
0 AMOS 5
1 37950U 11074A   25289.63081786 -.00000348  00000-0  00000-0 0  9998
2 37950   8.2374  63.4007 0002031 122.9336 195.3411  1.00273846 50552
Epoch: 2025-10-16T15:08Z
TLE epoch observation values (Epoch: 2025-10-16T15:08:22.663Z)
Latitude
-5.47036°
Longitude
129.46108°
Altitude
35,794.729 km
Speed
3.074 km/s
True Right ascension
01h 27m 46s
True Declination
-5° 27' 53"
Sunlit
Object was in daylight at epoch
Visualization orbit readout
Latitude
Unknown
Longitude
Unknown
Altitude
Unknown
Speed
Unknown
Apparent Right ascension
Unknown
Apparent Declination
Unknown
Sunlit
N/A
Visualization observer readout
Local Sidereal Time
14:33:33
Azimuth
Unknown
Elevation
Unknown
Doppler factor
Unknown
Orbital elements
Apogee altitude
35,795.619 km
Perigee altitude
35,778.492 km
Semi-major axis
42,165.192 km
Eccentricity
0.0002
Inclination
8.2374°
RAAN
63.4007°
Arg. of periapsis
122.9336°
True anomaly
195.33494°
Mean anomaly
195.3411°
Eccentric anomaly
195.33802°
Mean motion
0.25068 °/min
Orbital period
1,436.12 mins
BSTAR
0
Loading maneuver chart data...
Computing Atmospheric mass density...
Loading historical data...
Loading historical data...
Loading historical data...
Loading historical data...
Loading historical data...
Loading historical data...
Loading historical data...
Other satellites on launch #74 in the year 2011 (2011-12-11 UTC)

Documentation

Showing up to 5 results
|